Date String (YYYY-MM-DD hh:mm:ss) UTC,Instrument flags,absolute air pressure of the measurement (hPa),sample flow rate (lpm),inlet stack bypass flow (lpm),air temperature of the measurement (°C),ambient temperature measured by the external sensor (°C),aerosol sample conditioner tube jacket temperature (°C),OPC LED temperature (°C),internal box temperature (°C),relative humidity of the measurement (%),span deviation,mass concentration of particles derived from Lorenz-Mie calculation of OPC scattering (μg/m³),mass concentration of particles derived from Lorenz-Mie calculation of OPC scattering (μg/m³),mass concentration of particles derived from Lorenz-Mie calculation of OPC scattering (μg/m³)
DateTimeUTC,F1_M11,P_M11,Q1_M11,Q2_M11,T1_M11,T2_M11,T3_M11,T4_M11,T5_M11,U1_M11,ZSPAN_M11,X2_M11,X0_M11,X1_M11
2023-06-27 10:00:00,SystemResetWarning,0826.8,4.99,000.00,030.2,028.8,000.0,038.7,031.7,22.6,0000.0,0004.87,0017.52,0003.99
2023-06-27 10:01:00,SystemResetWarning,0826.8,4.99,000.00,030.2,028.8,000.0,038.7,031.8,22.8,0000.0,0004.89,0018.38,0004.00
2023-06-27 10:02:00,SystemResetWarning,0826.8,5.01,000.00,030.3,028.8,000.0,038.7,031.7,23.3,0000.0,0004.90,0018.15,0004.03
2023-06-27 10:03:00,SystemResetWarning,0826.9,5.01,000.00,030.3,028.8,000.0,038.7,031.8,23.6,0000.0,0004.92,0018.50,0004.04
2023-06-27 10:04:00,SystemResetWarning,0826.9,4.99,000.00,030.3,027.9,000.0,038.7,031.8,24.0,0000.0,0004.93,0018.55,0004.03
2023-06-27 10:05:00,SystemResetWarning,0826.9,5.00,000.00,030.3,025.5,000.0,038.6,031.8,24.3,0000.0,0004.90,0017.59,0004.02
2023-06-27 10:06:00,SystemResetWarning,0826.9,5.02,000.00,030.2,024.8,000.0,038.6,031.6,24.9,0000.0,0004.92,0015.68,0004.01
2023-06-27 10:07:00,SystemResetWarning,0826.9,4.99,000.00,030.1,025.0,000.0,038.6,031.2,25.7,0000.0,0004.91,0015.42,0004.02
2023-06-27 10:08:00,SystemResetWarning,0826.9,5.00,000.00,030.0,025.5,000.0,038.6,031.2,26.7,0000.0,0004.91,0014.81,0004.05
2023-06-27 10:09:00,SystemResetWarning,0826.9,5.01,000.00,029.9,026.0,000.0,038.5,031.2,26.7,0000.0,0005.01,0014.62,0004.11
2023-06-27 10:10:00,SystemResetWarning,0826.9,4.99,000.00,029.9,026.4,000.0,038.5,031.2,26.3,0000.0,0005.08,0015.10,0004.17
2023-06-27 10:11:00,SystemResetWarning,0826.9,5.00,000.00,029.9,026.8,000.0,038.5,031.2,27.1,0000.0,0005.22,0014.54,0004.23
2023-06-27 10:12:00,SystemResetWarning,0826.9,5.00,000.00,029.9,027.1,000.0,038.5,031.2,27.4,0000.0,0005.34,0014.89,0004.30
2023-06-27 10:13:00,SystemResetWarning,0826.9,5.01,000.00,029.9,027.3,000.0,038.5,031.3,28.2,0000.0,0005.45,0016.05,0004.37
2023-06-27 10:14:00,SystemResetWarning,0826.9,4.99,000.00,029.9,027.6,000.0,038.5,031.3,28.5,0000.0,0005.56,0015.94,0004.45
2023-06-27 10:15:00,SystemResetWarning,0826.9,4.99,000.00,029.9,027.7,000.0,038.5,031.3,29.1,0000.0,0005.68,0015.32,0004.54
2023-06-27 10:16:00,SystemResetWarning,0826.9,5.00,000.00,029.9,027.9,000.0,038.5,031.3,28.8,0000.0,0005.80,0015.38,0004.61
2023-06-27 10:17:00,SystemResetWarning,0826.9,5.00,000.00,029.9,028.0,000.0,038.5,031.4,28.5,0000.0,0005.89,0015.68,0004.68
2023-06-27 10:18:00,SystemResetWarning,0827.0,5.01,000.00,029.9,028.1,000.0,038.5,031.4,28.4,0000.0,0005.96,0015.82,0004.72
2023-06-27 10:19:00,SystemResetWarning,0826.9,5.01,000.00,029.9,028.2,000.0,038.5,031.4,28.4,0000.0,0006.09,0016.55,0004.78
2023-06-27 10:20:00,SystemResetWarning,0826.9,4.99,000.00,029.9,028.2,000.0,038.5,031.4,28.6,0000.0,0006.13,0016.88,0004.82
2023-06-27 10:21:00,SystemResetWarning,0827.0,4.99,000.00,030.0,028.3,000.0,038.5,031.4,28.4,0000.0,0006.18,0017.52,0004.85
2023-06-27 10:22:00,SystemResetWarning,0827.0,5.01,000.00,030.0,028.3,000.0,038.5,031.5,29.0,0000.0,0006.22,0018.46,0004.90
2023-06-27 10:23:00,SystemResetWarning,0827.0,5.02,000.00,030.0,028.4,000.0,038.5,031.5,29.4,0000.0,0006.25,0018.13,0004.92
2023-06-27 10:24:00,SystemResetWarning,0827.0,4.99,000.00,030.0,028.4,000.0,038.5,031.5,29.7,0000.0,0006.27,0017.33,0004.94
2023-06-27 10:25:00,SystemResetWarning,0827.0,4.99,000.00,030.0,028.4,000.0,038.5,031.5,29.8,0000.0,0006.28,0016.96,0004.96
2023-06-27 10:26:00,SystemResetWarning,0827.0,5.02,000.00,030.0,028.4,000.0,038.5,031.5,29.9,0000.0,0006.32,0017.78,0004.98
2023-06-27 10:27:00,SystemResetWarning,0827.0,5.00,000.00,030.0,028.5,000.0,038.6,031.5,30.1,0000.0,0006.41,0018.06,0005.01
2023-06-27 10:28:00,SystemResetWarning,0827.0,4.99,000.00,030.1,028.5,000.0,038.6,031.5,30.2,0000.0,0006.49,0018.31,0005.07
2023-06-27 10:29:00,SystemResetWarning,0827.1,4.99,000.00,030.1,028.5,000.0,038.6,031.6,30.1,0000.0,0006.57,0018.29,0005.15
2023-06-27 10:30:00,SystemResetWarning,0827.0,5.00,000.00,030.1,028.5,000.0,038.6,031.6,30.3,0000.0,0006.69,0018.23,0005.21
2023-06-27 10:31:00,SystemResetWarning,0827.1,5.02,000.00,030.1,028.6,000.0,038.6,031.6,30.6,0000.1,0006.81,0018.90,0005.27
2023-06-27 10:32:00,SystemResetWarning,0827.0,5.00,000.00,030.1,028.6,000.0,038.6,031.6,30.4,0000.4,0006.92,0019.11,0005.35
2023-06-27 10:33:00,SystemResetWarning,0827.0,4.98,000.00,030.1,028.6,000.0,038.6,031.6,30.6,0000.0,0007.09,0018.84,0005.43
2023-06-27 10:34:00,SystemResetWarning,0827.1,5.01,000.00,030.1,028.6,000.0,038.7,031.6,30.7,0000.0,0007.18,0019.40,0005.50
2023-06-27 10:35:00,SystemResetWarning,0827.1,5.00,000.00,030.2,028.7,000.0,038.7,031.7,30.5,0000.0,0007.29,0020.78,0005.58
2023-06-27 10:36:00,SystemResetWarning,0827.0,5.00,000.00,030.2,028.7,000.0,038.7,031.7,30.6,0000.0,0007.36,0022.18,0005.65
2023-06-27 10:37:00,SystemResetWarning,0826.9,4.99,000.00,030.2,028.7,000.0,038.7,031.7,30.7,0000.9,0007.47,0022.22,0005.74
2023-06-27 10:38:00,SystemResetWarning,0827.0,4.99,000.00,030.2,028.7,000.0,038.7,031.7,30.5,0000.8,0007.53,0022.89,0005.82
2023-06-27 10:39:00,SystemResetWarning,0827.0,5.00,000.00,030.2,028.7,000.0,038.7,031.7,30.8,0001.7,0007.60,0022.68,0005.89
2023-06-27 10:40:00,SystemResetWarning,0827.0,5.01,000.00,030.2,028.7,000.0,038.7,031.8,30.6,0003.0,0007.69,0023.07,0005.93
2023-06-27 10:41:00,SystemResetWarning,0827.0,5.00,000.00,030.3,028.7,000.0,038.8,031.8,30.7,0003.9,0007.69,0023.87,0005.96
2023-06-27 10:42:00,SystemResetWarning,0827.0,5.00,000.00,030.3,028.7,000.0,038.8,031.7,30.1,0003.8,0007.72,0025.17,0006.00
2023-06-27 10:43:00,SystemResetWarning,0827.0,5.00,000.00,030.3,028.6,000.0,038.8,031.8,29.3,0003.4,0007.83,0025.17,0006.04
2023-06-27 10:44:00,SystemResetWarning,0827.0,4.98,000.00,030.3,026.5,000.0,038.7,031.8,29.2,0002.9,0007.79,0024.39,0006.05
2023-06-27 10:45:00,SystemResetWarning,0827.0,5.02,000.00,030.2,024.9,000.0,038.6,031.7,29.5,0003.0,0007.81,0023.88,0006.08
2023-06-27 10:46:00,SystemResetWarning,0827.0,5.01,000.00,030.2,024.8,000.0,038.6,031.3,29.6,0003.2,0007.82,0023.01,0006.08
2023-06-27 10:47:00,SystemResetWarning,0826.9,5.00,000.00,030.0,025.1,000.0,038.6,031.2,29.4,0003.2,0007.89,0022.76,0006.08
2023-06-27 10:48:00,SystemResetWarning,0827.0,5.00,000.00,029.9,025.6,000.0,038.6,031.1,29.5,0002.8,0007.86,0022.78,0006.07
2023-06-27 10:49:00,SystemResetWarning,0827.0,4.99,000.00,029.9,026.1,000.0,038.6,031.2,29.5,0002.5,0007.84,0021.87,0006.05
2023-06-27 10:50:00,SystemResetWarning,0827.0,5.00,000.00,029.9,026.5,000.0,038.5,031.2,29.1,0002.2,0007.89,0021.65,0006.02
2023-06-27 10:51:00,SystemResetWarning,0826.9,5.00,000.00,029.9,026.8,000.0,038.5,031.2,28.6,0001.9,0007.87,0021.51,0006.02
2023-06-27 10:52:00,SystemResetWarning,0826.9,5.00,000.00,029.8,027.1,000.0,038.5,031.2,28.6,0002.3,0007.85,0022.00,0006.01
2023-06-27 10:53:00,SystemResetWarning,0827.0,5.00,000.00,029.8,027.4,000.0,038.5,031.3,28.5,0002.2,0007.86,0020.72,0006.00
2023-06-27 10:54:00,SystemResetWarning,0827.0,5.00,000.00,029.8,027.5,000.0,038.5,031.3,28.7,0002.2,0007.85,0020.27,0005.97
2023-06-27 10:55:00,SystemResetWarning,0827.1,4.98,000.00,029.8,027.7,000.0,038.5,031.3,29.2,0002.7,0007.81,0020.99,0005.96
2023-06-27 10:56:00,SystemResetWarning,0827.1,5.00,000.00,029.9,027.8,000.0,038.5,031.3,29.4,0002.7,0007.77,0020.64,0005.91
2023-06-27 10:57:00,SystemResetWarning,0827.1,5.01,000.00,029.9,027.9,000.0,038.5,031.3,29.4,0002.5,0007.74,0020.16,0005.88
2023-06-27 10:58:00,SystemResetWarning,0827.0,5.00,000.00,029.9,028.0,000.0,038.5,031.4,29.3,0002.2,0007.64,0019.02,0005.85
2023-06-27 10:59:00,SystemResetWarning,0827.0,5.00,000.00,029.9,028.1,000.0,038.5,031.4,28.9,0002.4,0007.61,0020.08,0005.82
